This demonstration page uses our WeatherBlox Daily Observations layout. Learn more.

Left ArrowRight Arrow

30.00354, -91.81873

Hourly Observations for December 5, 2022

Temp ( °F °C ) Dew Point ( °F °C ) Humidity (%) Winds ( mph kmh ) Pressure ( in mb ) Visibility ( mi km ) Precip ( " mm )
12:33 am 00:33 Mostly Clear with Fog 65 18.3 63 17.2 93 93 Calm 30.08 1019 0 0 0.00 0.00
12:53 am 00:53 Mostly Clear with Fog 65 18.3 63 17.2 93 93 Calm 30.08 1019 0 0 0.00 0.00
1:53 am 01:53 Mostly Clear with Fog 66 18.9 64 17.8 93 93 Calm 30.06 1018 0 0 0.00 0.00
2:53 am 02:53 Mostly Clear with Fog 66 18.9 64 17.8 93 93 SSE 6 9 30.05 1018 0 0 0.00 0.00
3:12 am 03:12 Mostly Clear with Fog 65 18.3 64 17.8 97 97 SSE 7 11 30.05 1018 1 1 0.00 0.00
3:25 am 03:25 Mostly Clear with Fog 65 18.3 64 17.8 97 97 SE 6 9 30.04 1017 0 0 0.00 0.00
3:53 am 03:53 Mostly Clear with Fog 66 18.9 64 17.8 93 93 SSE 3 6 30.04 1017 0 0 0.00 0.00
4:53 am 04:53 Mostly Clear with Fog 66 18.9 64 17.8 93 93 SE 3 6 30.03 1017 1 1 0.00 0.00
5:30 am 05:30 Mostly Clear with Fog 66 18.9 64 17.8 93 93 SE 6 9 30.04 1017 0 0 0.00 0.00
5:53 am 05:53 Mostly Clear with Fog 66 18.9 64 17.8 93 93 SSE 7 11 30.04 1017 0 0 0.00 0.00
6:04 am 06:04 Mostly Clear with Fog 66 18.9 64 17.8 93 93 SSE 7 11 30.04 1017 1 1 0.00 0.00
6:53 am 06:53 Cloudy with Fog 66 18.9 64 17.8 93 93 SSE 8 13 30.04 1017 1 1 0.00 0.00
7:00 am 07:00 Cloudy with Mist and Fog 66 18.9 64 17.8 93 93 SSE 7 11 30.04 1017 1 2 0.00 0.00
7:22 am 07:22 Cloudy with Mist and Fog 66 18.9 64 17.8 93 93 SSE 6 9 30.04 1017 2 3 0.00 0.00
7:53 am 07:53 Cloudy with Mist and Fog 67 19.4 65 18.3 93 93 SSE 10 17 30.04 1017 2 3 0.00 0.00
8:00 am 08:00 Cloudy with Mist and Fog 67 19.4 65 18.3 93 93 SSE 8 13 30.04 1017 4 6 0.00 0.00
8:53 am 08:53 Mostly Cloudy 68 20 66 18.9 93 93 SSE 7 11 30.04 1017 7 11 0.00 0.00
9:33 am 09:33 Cloudy 73 22.8 68 20 84 84 S 10 17 30.06 1018 10 16 0.00 0.00
9:44 am 09:44 Cloudy 73 22.8 67 19.4 81 81 S 14 22 30.06 1018 10 16 0.00 0.00
9:53 am 09:53 Cloudy 73 22.8 67 19.4 81 81 S 13 20 30.06 1018 10 16 0.00 0.00
10:01 am 10:01 Cloudy 74 23.3 68 20 82 82 S 13 20 30.06 1018 10 16 0.00 0.00
10:11 am 10:11 Cloudy 74 23.3 68 20 82 82 S 12 19 30.06 1018 10 16 0.00 0.00
10:18 am 10:18 Cloudy 73 22.8 67 19.4 81 81 S 12 19 30.06 1018 10 16 0.00 0.00
10:33 am 10:33 Mostly Cloudy 74 23.3 68 20 82 82 S 10 17 30.06 1018 10 16 0.00 0.00
10:53 am 10:53 undefined N/A N/A N/A undefined N/A 30.05 1018 N/A 0.00 0.00
11:53 am 11:53 undefined N/A N/A N/A undefined N/A 30.01 1016 N/A 0.00 0.00
12:53 pm 12:53 undefined 78 25.6 68 20 71 71 SSW 14 22 29.97 1015 10 16 0.00 0.00
1:53 pm 13:53 Cloudy 79 26.1 68 20 69 69 SSW 16 26 29.96 1015 10 16 0.00 0.00
2:53 pm 14:53 Mostly Cloudy 78 25.6 67 19.4 69 69 SSW 15 24 29.95 1014 10 16 0.00 0.00
3:53 pm 15:53 Partly Cloudy 77 25 67 19.4 71 71 S 16 26 29.95 1014 10 16 0.00 0.00
4:53 pm 16:53 Sunny 73 22.8 67 19.4 81 81 SSW 10 17 29.95 1014 10 16 0.00 0.00
5:53 pm 17:53 Clear 69 20.6 66 18.9 90 90 SSW 7 11 29.96 1015 10 16 0.00 0.00
6:53 pm 18:53 Clear 67 19.4 65 18.3 93 93 S 3 6 29.97 1015 10 16 0.00 0.00
7:53 pm 19:53 Clear 66 18.9 64 17.8 93 93 SSE 5 7 29.98 1015 10 16 0.00 0.00
8:53 pm 20:53 Partly Cloudy with Mist and Fog 66 18.9 64 17.8 93 93 S 3 6 29.99 1016 5 8 0.00 0.00
9:53 pm 21:53 Clear 67 19.4 65 18.3 93 93 S 7 11 29.98 1015 10 16 0.00 0.00
10:53 pm 22:53 Mostly Cloudy 67 19.4 65 18.3 93 93 S 7 11 29.98 1015 10 16 0.00 0.00
11:53 pm 23:53 Clear 69 20.6 65 18.3 87 87 S 9 15 29.97 1015 10 16 0.00 0.00

Powered by AerisWeather